Theta_e
327 328 328 327 328 328 328 328 327 327 327 327 327 326 326 326 326 326 326 326 326 326 326 326 327 327 327 327 327 327 327 327 327 327 326 326 326 326 326 325 325 325 324 323 322 321 321 321 321 319 317 317 318 318 318 317 316 315 313 312 311 310 310 309 308 307 306 305 304
327 327 327 327 326 327 328 327 327 327 327 328 327 327 327 326 326 326 326 327 327 327 327 327 327 327 327 327 327 327 327 327 327 327 326 327 327 326 326 325 325 324 322 321 320 320 319 320 319 318 316 315 316 316 316 315 315 314 314 312 312 312 311 310 309 307 306 305 305
326 327 327 327 327 327 327 327 327 327 327 327 327 327 327 327 327 327 327 327 327 327 327 327 327 327 327 327 327 327 327 327 327 327 326 326 326 326 326 325 323 321 320 319 319 318 318 319 318 318 317 316 316 316 316 316 316 315 314 314 315 314 312 310 309 309 308 307 307
326 326 326 326 327 327 327 327 327 327 327 327 327 327 327 327 327 327 327 327 327 327 327 327 327 327 327 326 326 327 327 326 326 326 325 325 325 325 325 323 321 320 319 319 319 319 318 318 318 318 317 318 317 316 315 315 315 315 314 314 314 313 312 310 310 310 309 308 308
326 326 327 326 326 327 327 327 327 327 327 327 327 327 327 327 327 327 327 326 326 327 327 328 327 327 326 325 326 326 326 326 325 325 325 324 324 324 323 322 320 320 320 319 320 319 319 319 318 318 317 317 316 315 315 315 315 314 314 313 312 312 311 310 309 308 308 307 307
325 326 326 327 327 327 327 327 327 327 327 327 326 326 326 326 327 326 326 326 327 328 328 327 326 326 325 325 325 325 325 325 324 324 324 323 323 322 322 320 320 319 319 319 319 319 318 318 317 316 316 316 314 315 315 315 313 312 312 311 310 310 309 308 307 306 305 304 304
325 326 326 327 327 327 327 327 327 327 327 327 326 326 326 326 326 326 327 327 327 327 327 326 326 325 325 325 325 324 324 324 324 323 323 322 322 321 321 320 319 319 318 319 318 318 317 316 315 314 314 313 313 314 314 313 312 310 310 309 307 307 306 306 305 304 303 303 303
326 326 326 326 327 327 327 327 327 326 326 326 326 326 326 326 326 327 327 327 327 327 326 326 325 325 325 325 324 324 323 323 322 322 322 323 322 321 321 320 319 319 318 318 317 316 316 315 314 313 313 312 312 312 313 312 310 310 309 308 307 306 306 306 304 303 303 302 303
325 326 327 327 327 327 327 327 327 326 326 326 326 326 327 326 327 327 327 327 326 326 325 325 325 325 325 325 324 324 323 323 321 322 322 322 322 321 321 320 319 318 317 316 316 315 315 314 313 313 313 312 311 311 311 311 309 309 308 308 307 306 305 304 303 302 302 301 301
325 326 327 327 327 327 327 327 326 326 326 326 326 327 326 326 326 327 327 326 326 325 325 325 325 325 325 325 324 324 323 323 322 321 321 321 321 321 320 319 318 317 317 316 315 315 314 314 312 312 312 311 310 310 310 310 309 308 307 307 306 305 304 303 302 301 300 300 300
325 326 326 326 327 327 326 327 326 326 326 326 326 327 326 326 327 327 327 326 326 325 325 325 325 325 325 324 324 324 324 323 323 322 321 321 320 320 319 319 317 317 316 315 315 314 314 313 312 311 310 310 310 309 309 308 307 307 306 306 305 304 302 301 300 300 300 300 299
325 326 326 326 327 326 326 326 326 326 326 326 326 326 327 327 328 327 326 326 325 325 326 326 326 325 325 325 325 324 324 324 323 322 321 321 320 320 319 318 317 316 316 315 315 314 313 312 311 310 310 310 309 308 308 307 306 306 306 305 304 303 302 301 300 299 299 299 298
325 326 326 326 326 327 326 326 325 326 326 326 326 326 327 327 327 326 325 325 325 325 326 326 326 326 325 325 324 324 323 323 322 322 321 320 320 320 319 319 318 316 316 315 315 314 312 311 311 310 309 309 308 307 307 306 306 305 305 304 304 303 302 301 300 299 299 299 298
325 325 326 326 326 326 326 326 325 325 326 326 326 326 327 327 326 326 325 325 325 325 325 326 326 326 325 324 324 323 323 322 321 321 320 320 320 319 319 319 318 317 316 315 314 313 312 311 311 310 309 308 307 307 306 306 305 305 304 304 304 303 303 302 301 300 299 298 298
325 325 325 326 326 325 325 325 325 325 325 326 326 326 326 326 326 325 325 325 325 325 325 325 325 324 324 324 324 323 323 322 321 320 320 319 319 319 318 318 317 316 315 314 313 313 312 312 311 310 309 308 307 307 306 306 305 305 305 304 304 304 303 303 301 300 299 298 298
324 325 325 325 325 325 325 325 325 325 325 326 326 326 326 325 325 325 325 325 325 325 325 324 324 324 323 324 323 323 322 321 321 320 319 318 318 318 317 317 317 316 315 313 313 312 312 311 311 310 309 308 308 307 307 306 305 305 305 305 305 305 304 303 302 301 300 299 298
324 324 325 325 325 324 325 325 324 325 325 325 326 326 325 325 325 324 324 324 324 323 323 323 323 323 322 322 322 322 321 320 319 319 318 317 317 317 317 317 316 316 314 313 312 312 312 311 310 309 309 309 309 308 307 307 306 306 305 305 305 305 304 304 302 301 300 299 298
323 324 324 325 324 324 324 325 324 325 325 325 326 325 325 325 325 324 324 323 323 323 323 323 322 322 321 321 320 320 319 319 319 318 318 317 317 317 317 316 316 314 314 313 313 312 311 310 310 310 309 309 309 308 308 307 306 305 305 304 304 304 304 303 302 301 300 299 298
323 323 324 324 324 324 324 324 324 324 325 325 325 325 325 325 324 323 323 322 322 322 322 322 322 321 320 320 320 319 319 319 319 318 318 318 317 316 316 315 314 314 313 312 312 311 310 310 310 309 309 309 308 308 307 306 305 304 304 303 303 303 302 302 301 300 300 299 299
323 323 323 324 324 324 324 324 324 324 325 325 325 325 325 324 323 322 322 321 322 322 322 322 321 321 320 320 319 320 319 319 318 318 317 317 316 315 315 314 313 312 312 312 310 309 309 309 309 309 308 308 307 307 306 305 304 303 303 302 302 302 301 301 300 299 299 298 298
322 323 323 324 324 324 324 324 324 325 325 325 325 325 323 323 322 321 321 321 322 322 322 321 321 320 320 320 319 319 318 318 317 316 315 315 315 314 314 313 312 312 311 311 310 309 308 309 308 308 308 307 307 306 305 304 303 303 302 302 301 301 300 300 299 299 298 298 298
322 323 323 324 324 324 324 324 324 324 325 325 324 324 322 321 321 321 321 321 321 321 321 320 320 320 320 319 319 318 317 316 316 315 314 314 314 314 314 313 312 311 311 310 309 309 308 308 308 308 308 308 306 305 305 304 304 303 302 301 300 300 300 300 299 298 298 298 297
322 323 323 324 324 324 324 324 324 324 324 324 323 322 321 320 321 321 321 321 321 321 321 321 320 320 319 318 317 316 315 314 314 314 314 314 314 313 313 313 311 311 310 309 309 309 309 309 308 308 307 304 305 305 305 304 303 303 302 301 300 300 299 299 299 298 298 297 297
322 323 323 323 323 323 323 323 324 324 323 323 322 321 321 320 320 321 320 320 320 320 320 320 319 318 317 316 315 314 313 313 313 313 313 313 312 312 312 311 311 310 309 309 307 308 309 308 306 305 304 302 304 305 305 304 303 302 302 300 300 300 299 299 299 298 298 298 298
322 322 323 323 323 323 323 323 323 322 322 322 321 320 320 319 319 319 319 319 319 318 318 317 316 316 315 314 313 313 313 313 312 312 311 311 311 311 310 311 310 310 309 308 307 307 307 307 305 305 304 304 305 304 303 301 301 301 301 300 300 299 299 298 298 298 298 298 298
322 322 322 322 322 322 322 322 322 321 321 320 319 319 319 318 318 318 317 317 316 316 315 315 314 313 312 312 312 312 312 312 311 311 311 310 310 310 310 309 309 308 308 307 306 307 306 306 305 305 304 304 304 303 301 299 300 301 301 300 300 299 298 298 298 298 298 298 298
321 321 321 322 321 321 321 321 320 320 319 318 318 318 317 317 317 317 316 315 314 314 313 313 312 312 312 312 312 311 311 310 310 310 310 309 309 308 308 307 307 306 306 306 306 306 305 305 304 304 304 304 303 302 300 299 300 301 300 300 299 299 299 298 298 298 298 298 298
320 320 320 320 320 320 319 319 319 318 317 317 317 317 316 316 315 314 314 313 313 312 312 312 312 312 312 312 311 310 309 309 309 309 309 309 308 307 306 306 305 304 304 305 305 305 305 304 304 303 303 304 303 302 301 300 300 300 300 299 299 299 299 298 298 298 298 298 298
319 319 319 319 318 318 318 317 317 316 316 316 316 316 315 314 313 313 312 312 311 311 311 311 311 311 311 310 309 309 309 309 309 309 308 308 307 306 305 304 303 303 304 305 305 305 304 304 303 302 302 302 303 302 301 301 300 300 300 299 299 299 299 298 298 298 297 297 297
317 317 317 316 316 316 316 316 316 315 315 314 314 313 313 312 311 311 311 310 310 310 310 309 309 309 308 308 308 308 308 309 308 308 307 306 306 305 304 304 303 303 303 304 304 304 304 303 302 302 301 301 302 302 302 301 301 300 300 299 299 299 299 298 298 297 297 298 298
316 316 315 315 315 315 314 314 314 314 313 313 312 311 310 310 309 310 309 309 309 309 308 308 307 307 307 307 307 307 307 308 307 307 306 305 304 304 303 303 302 302 303 304 304 304 304 303 302 301 301 301 302 302 302 301 301 300 300 299 299 299 299 298 298 298 298 298 298
314 314 314 313 313 313 313 313 312 312 311 311 310 309 309 308 308 308 308 308 308 307 307 307 306 306 306 306 306 306 306 306 306 305 305 304 303 302 302 302 301 302 302 304 304 304 303 303 302 301 301 300 301 301 301 301 300 300 300 300 299 299 299 298 298 298 298 299 299
313 313 312 312 312 311 312 311 311 311 310 309 309 308 307 306 306 306 307 307 308 307 307 306 306 305 305 305 305 304 304 304 304 303 303 302 302 301 300 300 301 301 303 304 304 304 303 303 302 302 301 301 301 301 300 299 299 299 299 299 299 299 299 299 298 298 299 299 298
312 312 311 311 310 310 310 310 310 310 309 308 307 307 306 306 306 306 307 307 308 308 307 307 306 306 305 305 304 303 303 303 302 303 302 302 301 301 300 300 301 301 303 304 304 304 303 303 303 302 302 301 301 300 299 298 298 297 297 297 298 298 298 298 298 298 298 298 297
311 310 310 310 310 310 310 310 310 309 308 307 306 306 306 306 306 306 307 307 307 307 307 306 306 306 305 305 304 303 302 302 301 302 302 302 301 301 300 300 301 301 302 303 303 303 303 303 303 303 302 301 301 300 299 297 296 296 296 296 296 297 297 297 297 297 297 297 297
311 310 309 309 309 310 310 310 309 309 308 307 306 306 306 306 306 306 306 305 305 305 305 305 305 304 304 303 303 302 302 301 301 301 301 301 300 300 300 299 300 300 301 302 303 303 303 303 303 303 302 302 301 299 298 296 295 295 295 295 295 296 296 296 296 296 296 297 296
310 310 310 309 309 310 310 309 309 308 307 307 306 306 305 305 304 305 305 305 304 304 303 303 303 302 302 302 301 301 301 301 300 300 300 300 300 300 299 299 299 299 300 301 302 302 303 303 303 302 302 301 300 299 297 296 295 295 295 295 295 295 295 296 296 296 296 296 296
311 310 310 309 309 310 309 309 308 308 307 306 305 305 304 304 304 304 304 304 303 303 302 302 301 300 300 300 300 300 300 300 300 300 300 300 300 299 299 298 298 299 299 300 301 302 302 303 302 302 302 301 299 298 296 295 295 295 295 295 295 295 296 296 296 296 296 296 295
310 310 310 310 309 309 309 308 308 307 306 305 305 304 304 304 303 303 304 303 303 302 301 300 299 299 299 299 299 299 299 299 299 299 299 299 299 299 299 298 298 299 299 300 301 302 302 302 302 301 301 301 299 298 297 296 296 295 295 295 295 296 296 297 297 297 296 296 295
311 311 310 310 309 309 308 307 306 306 305 304 304 303 303 303 303 303 302 302 301 300 299 298 298 298 298 298 298 297 297 297 298 298 298 298 298 299 299 298 298 298 299 301 302 302 302 302 301 301 301 301 299 298 298 297 297 296 296 296 296 296 296 297 297 297 297 296 296
311 310 310 309 309 308 307 306 305 305 304 304 303 302 302 302 302 302 301 301 300 299 298 297 297 297 297 297 297 297 296 296 296 297 297 297 298 298 299 299 298 299 300 301 301 302 302 301 301 300 301 301 300 299 298 297 297 296 296 296 296 296 296 296 296 296 297 297 296
Wind_Speed
13 11 10 9 8 8 7 7 7 7 7 7 8 7 7 7 7 7 6 6 6 6 6 6 6 7 8 10 11 11 11 12 12 12 12 12 12 12 12 11 11 10 9 8 7 6 6 6 4 2 2 1 1 1 1 1 2 3 3 3 3 3 4 4 5 6 6 6 5
14 13 12 10 9 8 7 7 7 7 7 7 7 7 7 7 7 7 7 7 6 6 6 6 6 7 9 10 11 11 11 11 12 12 12 12 12 12 11 10 9 8 7 6 6 4 3 3 3 3 2 2 2 2 2 1 0 1 2 3 2 3 3 4 5 6 6 5 4
14 13 12 12 11 9 8 8 8 9 9 8 7 7 7 7 6 6 6 7 7 6 6 6 7 8 9 10 9 9 10 10 11 11 10 10 10 10 9 8 7 7 7 6 6 5 3 3 3 2 2 1 1 1 2 2 2 2 3 4 3 3 4 4 5 4 4 3 4
15 14 13 13 13 12 11 9 10 10 10 8 8 8 7 7 6 6 6 7 7 7 6 6 7 7 8 8 9 8 8 8 9 9 8 7 7 7 7 6 6 6 6 7 7 6 6 5 3 2 3 3 4 5 5 5 5 5 4 4 3 3 3 3 3 2 2 3 4
15 14 13 13 14 13 11 10 11 11 10 8 8 7 7 7 6 6 6 7 7 7 7 7 6 6 7 8 9 9 8 8 7 7 7 6 6 6 6 7 6 6 6 7 7 7 7 7 4 3 3 3 4 4 5 4 4 4 3 2 2 2 2 1 1 1 2 2 2
15 14 14 13 14 13 11 10 12 11 10 8 9 8 8 7 6 7 7 7 7 7 8 7 7 7 8 8 9 9 8 8 7 7 7 7 6 6 6 7 7 6 6 6 7 7 7 6 3 3 2 2 2 2 2 3 3 3 2 1 1 1 1 1 1 1 2 2 2
15 15 14 14 14 13 12 11 11 11 10 9 10 10 10 9 8 9 8 7 7 7 7 6 7 7 8 9 9 8 8 8 7 7 7 7 6 7 7 7 7 7 7 6 6 6 5 5 3 2 2 2 1 2 2 3 3 2 2 2 2 1 1 2 2 2 2 3 4
14 15 14 14 14 14 13 12 12 11 10 9 10 11 12 11 11 10 9 8 7 7 6 6 7 8 8 9 8 8 8 8 8 7 6 5 6 7 7 8 8 8 7 7 7 6 5 4 3 3 3 2 2 2 3 4 4 3 3 3 2 2 2 2 2 2 3 4 5
13 14 14 14 14 14 13 13 12 12 11 10 11 12 12 11 11 10 9 8 7 7 7 6 7 8 8 9 9 9 8 8 8 7 6 6 6 6 6 7 7 8 7 7 7 7 6 4 3 3 3 3 3 3 4 4 4 4 4 3 3 3 3 2 3 3 3 4 5
13 13 13 13 13 13 13 13 12 12 12 11 12 12 12 11 10 10 8 7 7 8 8 7 8 8 8 9 9 9 8 8 8 8 8 7 7 7 6 5 6 7 7 7 7 7 6 4 4 3 3 3 3 4 4 4 4 4 3 2 3 3 3 3 3 3 4 4 5
14 14 13 12 13 13 13 13 12 11 11 11 11 11 11 10 10 9 8 7 8 8 9 8 9 9 9 8 8 8 8 8 8 8 9 8 8 7 7 6 7 7 7 7 6 6 5 4 4 4 4 4 4 4 4 4 4 4 4 3 3 4 4 4 4 4 4 4 5
14 14 13 13 13 13 13 12 11 10 11 10 11 11 10 10 9 9 8 8 8 8 8 9 9 9 8 7 7 7 7 8 8 8 9 9 9 8 8 8 8 8 8 7 6 5 5 4 5 5 6 5 4 4 4 5 5 5 4 4 4 4 5 5 5 5 4 5 5
14 13 13 13 14 13 13 12 10 10 10 10 10 10 10 9 9 9 9 9 8 8 7 8 8 8 8 7 7 7 7 7 7 8 8 9 9 9 9 9 9 8 8 7 6 6 5 5 6 6 6 6 4 4 4 5 5 5 5 5 5 5 5 6 6 5 5 5 5
14 14 13 13 14 13 12 11 10 9 10 10 10 9 9 9 9 9 8 8 8 7 7 7 7 7 7 8 7 7 7 7 7 7 8 8 8 9 9 8 9 8 8 7 7 6 6 6 6 6 6 6 5 5 5 5 5 4 4 4 5 5 5 6 6 6 6 6 6
14 14 14 14 14 13 11 11 9 9 9 10 9 9 9 8 9 8 8 8 8 7 7 7 7 7 7 8 8 8 8 8 8 7 7 7 7 7 7 7 8 8 8 7 7 7 7 6 6 6 6 5 5 5 5 5 4 4 4 4 4 5 5 5 5 5 6 6 6
14 14 14 14 14 13 11 10 9 9 9 9 9 9 8 8 8 8 8 8 8 7 7 8 7 7 7 7 8 8 8 8 8 8 7 7 7 6 6 7 8 8 8 8 7 7 6 6 5 5 5 5 5 5 5 5 5 4 4 4 4 5 4 4 5 5 5 5 5
15 14 14 14 14 13 12 11 9 9 9 10 10 9 8 8 8 8 8 8 7 7 8 9 8 7 7 7 7 7 8 8 8 8 7 7 7 7 7 7 7 7 7 7 7 7 6 6 6 5 5 5 5 5 5 5 4 4 4 4 4 4 3 3 4 4 5 5 6
15 15 14 14 14 13 13 11 10 10 10 11 10 9 9 8 8 8 8 8 8 8 9 9 9 8 8 8 7 7 7 7 8 8 8 8 8 8 7 7 7 6 6 6 6 6 7 7 6 6 5 5 5 5 4 4 4 3 3 3 3 2 2 3 3 4 4 5 5
15 15 14 14 14 13 13 12 11 11 11 11 10 10 9 10 10 9 9 9 9 9 9 10 9 9 9 9 8 7 6 7 8 8 8 8 8 7 7 7 7 7 6 5 5 6 6 6 6 6 6 5 5 4 4 4 4 3 3 2 2 2 2 2 3 3 3 4 4
14 14 14 14 14 13 13 12 11 11 11 11 11 11 11 11 10 10 9 9 9 9 9 10 10 9 9 9 9 8 7 6 7 8 8 7 7 8 8 8 8 7 6 5 6 6 6 6 6 6 6 6 5 5 5 4 4 4 3 3 2 2 2 3 3 3 3 4 4
14 14 14 13 13 13 12 12 11 11 11 11 12 12 12 12 11 10 10 10 10 10 9 10 10 10 10 10 9 9 8 7 7 8 8 8 8 8 8 8 8 7 6 6 6 5 5 5 5 5 5 6 5 5 5 4 4 4 4 3 3 3 3 4 4 4 4 4 4
14 13 13 13 13 13 12 12 11 11 11 12 12 12 12 12 11 11 10 10 10 10 9 9 9 10 10 10 9 9 8 7 8 8 8 8 8 8 8 8 8 8 7 6 5 5 5 5 5 5 5 5 5 4 4 4 4 4 4 4 4 4 4 4 4 4 5 5 5
13 13 13 13 13 13 12 12 12 11 12 12 12 12 12 12 12 11 11 10 10 9 9 8 9 9 10 10 10 9 9 8 8 8 8 8 8 8 8 8 8 8 7 6 5 4 4 4 4 4 4 4 4 4 3 2 3 3 3 3 3 4 4 4 4 4 5 5 5
13 13 12 11 12 13 12 12 12 12 12 12 12 12 12 11 11 11 11 10 10 10 9 8 8 9 10 10 10 10 9 9 9 9 9 9 8 8 8 8 8 7 6 5 4 4 4 4 4 4 4 3 3 3 3 3 2 2 3 3 3 3 3 3 4 4 4 4 5
14 13 13 12 13 13 12 12 12 12 12 12 12 12 12 12 11 11 10 11 10 10 10 10 10 10 9 9 9 9 9 9 9 9 9 9 9 8 7 7 7 6 6 6 6 6 6 5 4 4 3 3 3 3 3 4 2 2 3 3 3 3 3 3 3 3 3 4 4
14 13 13 13 13 13 13 12 12 12 13 13 13 13 12 12 11 11 11 11 11 11 11 11 10 9 8 8 8 8 8 8 9 9 9 9 9 8 7 6 6 5 6 7 8 8 8 7 6 5 4 3 3 3 3 2 2 2 2 2 2 2 2 2 3 3 3 3 3
13 13 13 13 13 13 13 13 13 13 13 13 13 12 12 12 11 11 12 12 11 11 10 10 9 8 8 8 9 9 9 8 8 8 8 8 8 8 7 6 5 5 5 8 9 9 9 8 7 5 4 3 4 3 3 2 2 1 1 1 1 1 1 2 2 2 2 2 2
13 13 14 14 13 13 13 13 13 13 13 13 13 12 12 12 12 12 12 11 11 10 9 8 8 7 6 7 8 9 9 9 9 8 8 8 8 7 7 6 5 5 6 9 10 10 9 8 7 5 4 4 4 4 3 2 3 2 2 2 1 1 1 1 1 1 1 2 2
13 13 14 14 13 13 13 13 13 13 13 13 13 13 12 12 12 12 12 11 11 10 8 7 6 6 6 7 8 9 9 9 9 8 8 8 8 8 7 6 5 5 7 9 9 9 9 8 7 5 4 3 3 3 3 2 2 2 2 2 2 2 1 1 0 0 1 2 2
13 13 13 13 13 13 13 13 13 13 12 12 12 13 12 12 12 12 11 11 10 9 8 7 7 7 8 8 8 9 9 8 8 8 8 8 8 8 7 7 6 6 6 8 9 9 9 8 7 5 4 3 3 3 3 2 2 2 2 2 2 2 2 1 1 1 2 2 3
13 13 13 13 13 13 13 13 13 12 12 12 12 12 12 12 11 11 11 10 10 9 9 9 9 10 10 9 8 9 9 8 8 8 8 9 9 8 8 8 7 6 6 8 8 8 8 8 7 6 4 3 3 3 2 2 2 2 2 2 2 2 2 2 2 2 2 2 3
14 14 14 14 13 13 13 13 13 12 13 13 13 12 12 12 11 10 10 10 10 10 10 10 11 11 10 10 9 9 9 9 8 8 8 8 9 9 8 8 7 6 6 8 8 9 8 8 7 6 4 2 2 2 2 2 2 2 2 2 3 3 2 2 2 2 2 2 2
14 14 14 14 14 13 13 13 13 13 13 13 13 12 12 12 11 10 10 9 10 10 11 11 11 11 11 10 10 10 9 9 9 9 9 9 9 9 8 8 7 7 7 8 8 9 9 8 7 6 4 2 2 2 3 3 2 3 3 3 3 3 2 2 2 1 0 1 1
14 15 14 14 14 13 13 13 13 13 13 13 13 12 12 12 11 11 10 9 9 10 10 10 11 11 11 10 10 10 9 8 9 9 9 9 9 9 9 8 6 6 7 8 8 8 9 8 8 6 4 2 1 2 3 3 3 3 3 3 3 3 3 3 3 2 2 2 2
15 15 15 14 14 13 13 13 13 14 14 13 13 12 12 12 11 11 10 10 10 10 10 10 11 11 10 10 10 10 10 9 9 9 8 8 9 9 9 9 7 7 7 7 8 8 8 8 8 7 5 2 2 3 3 4 4 4 4 4 4 4 4 4 4 3 3 3 3
15 15 15 15 14 14 14 14 14 14 14 13 13 12 12 11 11 10 10 11 11 11 11 11 11 11 11 10 10 9 9 10 9 9 9 9 9 10 10 9 8 8 7 6 6 7 7 7 8 7 5 2 2 3 3 3 3 4 4 5 4 5 5 5 5 4 3 3 4
15 15 15 15 15 14 14 14 14 14 14 13 13 13 12 12 11 10 10 11 11 11 11 11 11 11 11 10 9 9 9 9 9 9 9 9 9 10 10 9 8 8 7 6 6 6 7 7 7 6 5 2 2 3 3 3 3 3 4 5 5 5 5 5 5 4 4 3 4
15 15 15 15 15 15 14 14 14 14 14 14 13 12 12 12 11 10 10 10 11 11 12 11 11 11 10 10 10 10 9 9 9 9 9 9 9 9 9 9 8 7 7 6 6 6 7 8 7 6 4 2 3 3 3 3 3 3 4 4 5 5 5 4 4 4 4 5 6
15 15 15 15 15 15 15 14 14 14 14 14 13 13 12 11 10 10 10 10 11 11 12 12 11 11 11 10 10 10 10 9 9 9 9 9 9 9 9 9 8 7 6 6 6 7 8 8 7 5 3 2 3 3 3 3 3 4 4 4 4 5 5 4 4 4 5 6 6
14 15 15 15 15 15 15 15 14 14 13 13 13 13 12 11 11 10 10 10 11 11 11 12 12 11 11 10 10 10 10 10 9 9 9 9 9 9 9 9 9 8 7 7 7 7 8 8 6 5 3 2 3 3 3 3 3 4 4 4 4 4 4 4 4 4 5 5 6
14 14 15 15 15 15 15 15 14 14 13 13 13 12 11 11 11 11 11 10 11 11 11 11 11 11 11 10 10 10 11 11 10 10 9 9 9 9 8 9 9 9 8 7 8 8 8 8 6 4 3 2 2 2 2 2 3 4 4 4 4 4 3 4 4 4 4 5 5
Wind_Direction
185 184 184 184 181 177 173 174 175 176 177 179 180 181 182 185 184 182 180 182 184 185 186 188 188 187 187 188 189 190 192 194 194 195 195 196 198 199 199 201 202 202 200 198 193 193 195 198 182 145 98 94 179 225 232 219 197 195 197 197 204 213 221 224 222 213 203 198 199
185 183 182 182 179 175 171 173 176 178 179 179 179 180 181 183 184 181 180 182 184 184 184 185 187 186 185 184 187 189 191 193 194 195 196 197 198 199 198 199 197 192 185 182 177 173 169 168 132 109 94 79 64 42 17 341 336 193 197 203 207 216 224 227 226 217 206 199 198
184 182 181 181 179 176 174 175 177 178 178 177 177 178 179 182 182 181 180 181 182 183 182 183 186 184 180 177 182 186 189 191 192 193 194 196 197 195 193 186 179 174 173 176 175 170 160 152 133 125 125 121 131 169 206 221 202 196 198 203 198 201 208 216 215 211 204 200 201
183 181 181 181 180 178 176 175 176 176 176 175 176 177 178 179 181 180 179 180 181 182 183 184 181 174 168 166 174 180 185 187 187 188 188 188 187 183 176 162 159 166 175 182 184 185 183 179 171 171 180 187 199 205 207 204 197 197 199 199 192 194 199 206 204 198 196 199 204
183 181 181 181 180 178 176 174 174 174 174 173 174 175 176 178 180 180 179 180 182 182 181 180 169 158 154 158 167 172 175 177 178 179 178 176 174 168 160 153 156 166 178 185 189 192 191 183 175 173 180 186 197 204 204 187 182 183 185 175 166 178 191 195 177 169 175 186 192
182 181 180 179 178 176 175 174 173 173 173 173 175 175 175 176 179 180 181 182 181 177 173 169 156 148 148 156 164 166 167 167 170 173 174 173 169 163 159 160 165 170 175 179 181 182 180 168 154 144 144 144 164 165 151 136 149 159 166 154 137 137 156 165 143 145 157 177 182
181 180 178 177 176 174 173 173 173 173 173 174 177 177 177 176 179 181 181 180 172 165 160 157 152 150 152 159 163 164 163 164 166 171 173 170 166 166 168 170 172 171 169 166 162 160 156 144 135 132 133 130 144 149 145 136 148 160 168 166 139 130 142 166 149 147 166 188 194
180 178 177 174 174 173 172 172 172 172 174 176 179 179 178 178 180 180 179 172 160 152 150 152 155 155 156 160 162 161 160 159 161 163 162 155 158 166 172 175 175 172 167 161 155 152 149 138 138 147 154 155 164 169 167 159 168 177 184 185 168 160 161 169 157 162 178 193 200
177 176 174 171 172 171 171 171 172 173 175 177 180 180 180 179 180 179 174 162 153 149 150 155 159 159 159 160 161 160 158 157 157 156 154 148 153 160 166 170 172 169 163 158 157 159 159 152 160 170 172 166 172 175 174 171 182 189 192 186 168 161 159 159 155 162 176 189 201
174 173 171 169 170 170 169 170 172 174 176 178 180 180 179 178 179 175 167 152 151 153 157 160 163 163 163 163 163 161 159 157 156 155 154 152 153 153 153 153 160 159 157 157 161 165 167 164 170 174 171 160 169 172 173 170 183 190 192 181 165 162 161 160 158 163 175 189 202
171 170 168 167 167 167 167 169 172 175 177 178 179 179 178 177 176 168 157 148 155 160 163 163 165 166 166 164 164 162 159 157 156 155 155 155 156 154 152 149 152 153 154 157 160 163 165 163 168 169 167 159 167 169 169 169 180 188 192 189 178 171 167 166 166 171 180 190 199
168 167 166 164 165 165 166 168 171 174 176 178 178 177 176 174 166 157 151 152 160 164 165 164 165 164 162 157 157 154 151 150 150 151 152 154 157 159 159 158 158 158 158 158 157 158 161 165 170 173 172 165 167 166 166 168 180 190 196 195 189 184 182 181 178 179 184 189 197
166 165 164 162 163 164 165 167 170 173 175 177 177 175 170 161 154 151 152 157 162 164 162 158 157 156 152 147 145 142 140 139 140 144 148 154 159 163 165 165 164 163 161 158 157 158 164 170 173 175 173 167 166 164 164 168 182 192 197 197 196 198 198 193 187 183 183 188 195
163 163 163 162 162 163 165 167 169 172 174 176 176 170 160 150 150 152 156 160 161 158 152 146 145 143 141 139 138 137 136 135 137 142 148 154 160 164 166 164 164 163 161 158 160 164 170 174 174 173 172 167 165 163 164 171 180 186 192 198 204 209 209 202 192 186 184 188 193
163 163 162 161 162 163 165 166 168 170 172 174 171 162 152 147 150 154 157 157 154 149 142 136 133 132 133 135 137 139 141 142 143 144 145 147 152 157 160 160 163 162 161 159 162 167 172 172 167 165 163 161 161 163 166 171 173 179 190 202 211 217 217 208 197 190 187 189 193
163 163 162 162 163 164 165 167 168 169 170 171 162 154 149 148 150 153 154 150 147 143 138 134 130 129 131 133 137 140 142 143 142 141 140 140 145 151 157 162 164 162 159 158 161 163 164 160 154 152 153 153 157 163 167 166 168 177 191 206 215 221 220 207 197 191 188 189 195
162 162 163 163 165 166 166 167 168 169 168 164 154 151 150 148 147 148 148 144 143 141 139 134 130 128 128 128 133 137 139 140 140 140 141 144 150 156 161 165 160 154 151 156 157 154 150 144 141 142 144 148 154 159 162 160 165 176 190 206 217 219 215 200 192 189 189 191 198
162 162 163 164 166 166 167 168 168 167 164 158 152 151 151 145 142 141 141 140 141 141 140 135 132 130 130 131 134 138 140 142 144 146 149 151 155 158 158 155 142 136 137 146 145 142 138 137 138 140 143 147 151 153 153 152 158 168 182 200 212 213 205 192 187 187 189 195 201
162 163 164 165 166 166 166 167 166 164 161 154 151 150 147 138 135 135 137 138 140 142 141 137 134 135 137 139 142 144 146 146 148 148 149 149 151 149 144 134 123 119 120 125 126 127 131 136 139 141 143 143 144 144 143 142 150 159 172 186 194 193 185 181 181 185 191 197 203
162 163 164 165 165 165 165 165 163 161 157 152 150 146 140 132 131 132 135 139 142 143 142 138 137 139 142 146 147 147 145 143 142 140 138 137 136 134 129 122 116 112 111 112 115 119 126 135 140 141 141 140 141 142 143 148 156 161 165 174 177 176 174 173 177 185 191 195 201
162 163 163 163 163 162 162 162 160 158 154 149 147 141 134 128 129 132 136 140 142 143 142 139 140 142 144 145 144 140 136 130 128 126 124 124 125 125 123 120 117 114 112 111 114 120 129 139 142 143 142 143 142 144 150 162 164 163 162 171 173 173 173 176 180 186 191 195 201
161 161 161 160 160 160 159 159 157 154 151 147 142 136 130 127 130 133 136 139 140 140 140 139 141 141 141 138 134 128 123 119 119 120 120 123 124 124 122 119 117 115 114 114 116 123 132 138 137 137 136 134 133 144 160 170 165 161 162 171 172 174 177 182 186 190 193 196 202
158 157 157 157 158 158 156 155 152 150 147 143 136 131 128 128 132 134 135 135 135 135 135 135 135 133 129 125 120 117 116 117 119 121 123 123 121 118 115 113 114 114 114 114 114 120 125 123 117 113 111 110 127 147 164 159 147 150 158 167 171 176 182 187 190 193 197 200 205
155 155 155 155 156 155 153 149 146 144 142 137 130 127 126 127 128 129 130 130 129 129 128 124 121 118 115 111 111 113 116 120 122 122 122 120 117 114 112 113 115 116 117 116 117 120 121 113 104 99 101 114 140 146 132 95 97 127 157 167 172 179 187 193 194 196 200 204 207
153 153 153 153 153 150 146 143 142 140 136 131 127 124 123 122 122 123 124 124 123 121 118 114 110 108 106 106 111 115 119 122 122 122 120 118 116 115 116 118 120 121 121 123 128 129 126 121 119 120 126 144 146 131 111 92 113 161 178 171 172 179 190 198 199 201 204 205 208
151 151 150 148 145 142 140 139 137 133 129 126 124 123 122 122 121 122 122 120 117 113 110 107 105 104 106 111 116 119 119 118 117 117 116 116 115 115 114 113 112 110 116 128 134 132 127 122 124 128 134 140 125 113 108 114 158 179 178 160 165 181 198 204 201 202 204 204 206
146 144 143 140 139 138 137 135 130 126 124 123 123 123 124 125 124 123 120 116 112 109 106 105 106 108 112 117 118 117 113 110 109 109 110 112 113 112 108 102 98 101 116 133 136 133 127 121 121 123 126 124 112 108 111 132 144 146 142 133 151 198 230 230 211 204 202 197 199
136 136 136 136 136 135 132 129 126 124 123 124 124 124 124 125 123 120 117 114 112 110 109 110 113 115 116 117 115 112 110 108 107 108 109 111 111 108 102 93 94 106 124 135 134 131 126 121 120 120 120 118 114 116 123 138 143 147 149 147 161 198 240 266 249 216 198 189 193
128 129 130 131 130 128 125 123 123 123 123 123 123 123 122 121 119 117 116 116 115 115 115 117 117 116 115 114 111 109 108 107 107 109 111 112 110 104 99 94 95 107 121 129 128 126 124 121 120 117 110 101 112 120 131 144 148 149 151 155 163 174 187 207 242 240 216 198 199
125 125 125 124 123 122 122 122 122 122 122 120 120 119 118 116 116 116 117 117 116 116 116 117 116 114 113 112 110 108 107 107 110 113 115 115 111 106 102 99 98 104 113 120 122 123 123 121 119 113 100 82 99 111 123 138 141 143 144 146 149 152 154 154 172 206 220 213 204
125 124 123 123 122 122 122 123 122 121 120 118 118 117 116 115 115 115 115 114 114 113 113 114 113 112 110 108 107 107 108 109 112 114 115 113 109 104 100 98 98 101 110 118 121 123 123 122 119 113 103 87 95 106 120 135 133 131 128 128 132 137 143 150 167 199 221 225 213
127 126 125 125 124 124 124 123 122 120 119 118 118 116 114 112 112 112 112 113 114 116 116 116 114 111 109 106 105 105 106 109 110 110 109 108 107 104 101 98 98 102 111 120 123 125 125 123 121 118 114 102 89 86 91 95 99 101 103 105 114 125 138 145 157 185 214 232 237
129 129 127 127 126 125 124 123 122 121 120 119 117 115 114 112 112 113 114 116 118 119 119 118 115 112 111 110 109 109 108 108 108 108 109 110 111 109 106 102 101 105 113 122 126 127 128 127 127 127 128 129 95 76 73 70 76 80 84 88 98 108 116 116 119 136 185 315 344
131 130 129 127 127 126 126 126 124 123 121 118 116 116 116 117 118 119 120 121 121 120 118 116 114 113 113 113 113 113 112 110 110 111 113 114 113 110 107 102 100 104 112 123 126 129 131 133 135 137 140 149 98 68 65 64 70 75 80 84 91 96 97 91 76 55 34 19 15
132 131 130 129 129 129 129 129 127 125 122 119 118 118 118 119 120 121 120 119 115 113 111 109 109 109 110 111 113 113 114 113 113 113 114 114 110 106 102 98 95 96 101 115 123 129 134 139 140 140 141 142 91 66 64 66 73 80 86 89 91 91 91 86 74 57 36 21 21
133 133 132 131 132 132 132 132 129 126 123 121 120 119 118 117 117 116 116 114 111 109 108 107 107 108 110 111 112 113 114 115 115 114 113 112 109 106 103 100 96 91 88 95 112 125 133 137 136 136 136 129 88 72 71 72 77 85 91 93 91 88 86 84 79 68 49 27 25
135 134 134 133 134 134 134 132 129 127 124 122 121 119 118 116 116 115 115 114 112 111 110 109 109 109 109 110 110 110 111 113 114 114 113 112 110 109 107 105 101 92 82 77 96 114 125 128 128 129 130 120 95 84 82 81 86 91 93 92 90 88 86 86 84 78 65 45 35
136 136 135 135 135 135 134 133 130 127 125 123 121 120 119 118 118 118 118 117 115 114 112 109 107 106 106 106 105 105 106 107 109 110 110 110 110 110 110 108 103 95 83 71 86 105 117 121 124 126 127 114 99 93 91 93 96 97 96 94 92 91 91 92 91 86 76 61 47
137 137 136 135 135 135 134 131 128 126 124 123 122 121 120 120 120 120 119 116 114 113 111 109 108 106 105 104 102 101 99 97 98 99 101 103 104 106 108 107 104 98 88 77 87 103 115 120 123 124 121 103 95 93 93 97 99 99 99 99 98 95 94 93 93 91 85 75 60
137 137 136 135 135 133 132 129 126 124 124 123 123 122 121 120 119 117 115 111 110 109 109 109 109 108 106 104 102 99 96 92 89 88 90 93 97 100 103 106 106 103 97 89 95 106 115 120 120 117 108 92 92 95 100 103 104 104 103 102 101 98 95 92 91 91 89 86 73
136 136 135 134 132 130 128 125 123 122 122 121 121 120 119 119 117 115 113 110 109 109 108 109 109 108 107 104 102 100 98 94 91 90 91 93 96 99 102 107 109 108 105 101 104 110 115 116 112 104 94 89 96 102 108 112 109 104 101 99 99 99 98 94 90 87 85 84 80